This demonstration page uses our WeatherBlox Daily Observations layout. Learn more.

Left ArrowRight Arrow

38.20091, -84.87328

Hourly Observations for August 31, 2021

Temp ( °F °C ) Dew Point ( °F °C ) Humidity (%) Winds ( mph kmh ) Pressure ( in mb ) Visibility ( mi km ) Precip ( " mm )
12:53 am 00:53 Clear 71 21.7 69 20.6 94 94 SW 6 9 29.91 1013 10 16 0.00 0.00
1:31 am 01:31 Partly Cloudy 71 21.7 69 20.6 94 94 Calm 29.92 1013 10 16 0.00 0.00
1:40 am 01:40 Mostly Cloudy 71 21.7 69 20.6 94 94 Calm 29.92 1013 10 16 0.00 0.00
1:53 am 01:53 Cloudy 71 21.7 69 20.6 94 94 Calm 29.91 1013 10 16 0.00 0.00
2:53 am 02:53 Cloudy 71 21.7 70 21.1 96 96 ESE 3 6 29.89 1012 10 16 0.00 0.00
3:43 am 03:43 Cloudy 70 21.1 69 20.6 97 97 ESE 3 6 29.85 1011 10 16 0.00 0.00
3:53 am 03:53 Cloudy 70 21.1 69 20.6 97 97 E 3 6 29.85 1011 10 16 0.00 0.00
4:44 am 04:44 Mostly Cloudy 71 21.7 69 20.6 94 94 ENE 3 6 29.83 1010 10 16 0.00 0.00
4:53 am 04:53 Mostly Cloudy 71 21.7 69 20.6 94 94 Calm 29.83 1010 10 16 0.00 0.00
5:53 am 05:53 Cloudy with Light Rain 70 21.1 69 20.6 97 97 E 5 7 29.81 1010 10 16 0.00 0.00
6:08 am 06:08 Partly Cloudy with Light Rain 70 21.1 69 20.6 97 97 E 5 7 29.82 1010 10 16 0.01 0.25
6:53 am 06:53 Clear 70 21.1 69 20.6 97 97 Calm 29.80 1009 10 16 0.01 0.25
7:53 am 07:53 Sunny with Light Rain 70 21.1 69 20.6 97 97 Calm 29.81 1010 8 13 0.01 0.25
8:53 am 08:53 Partly Cloudy 71 21.7 69 20.6 94 94 E 3 6 29.82 1010 10 16 0.01 0.25
9:53 am 09:53 Mostly Cloudy with Light Rain 71 21.7 69 20.6 94 94 E 5 7 29.81 1010 10 16 0.01 0.25
10:53 am 10:53 Cloudy with Light Rain 72 22.2 70 21.1 94 94 E 5 7 29.81 1010 10 16 0.01 0.25
11:53 am 11:53 Cloudy with Light Rain 72 22.2 70 21.1 94 94 ENE 7 11 29.80 1009 8 13 0.04 1.02
12:13 pm 12:13 Cloudy with Light Rain 73 22.8 70 21.1 90 90 ENE 8 13 29.78 1009 6 10 0.02 0.51
12:42 pm 12:42 Cloudy with Light Rain 72 22.2 70 21.1 94 94 E 10 17 29.78 1008 7 11 0.05 1.27
12:49 pm 12:49 Cloudy with Light Rain 73 23 70 21 89 89 E 9 15 29.77 1008 7 11 0.05 1.27
12:53 pm 12:53 Cloudy with Light Rain 73 22.8 70 21.1 90 90 E 8 13 29.78 1008 9 14 0.05 1.27
1:03 pm 13:03 Cloudy with Light Rain 72 22.2 69 20.6 91 91 E 8 13 29.78 1008 10 16 0.01 0.25
1:17 pm 13:17 Cloudy with Light Rain 72 22.2 70 21.1 94 94 E 7 11 29.77 1008 6 10 0.02 0.51
1:53 pm 13:53 Cloudy with Light Rain 73 22.8 70 21.1 90 90 E 9 15 29.75 1007 10 16 0.03 0.76
2:44 pm 14:44 Cloudy with Rain 72 22.2 70 21.1 94 94 E 8 13 29.74 1007 3 4 0.14 3.56
2:53 pm 14:53 Cloudy with Rain 71 21.7 69 20.6 94 94 E 10 17 29.74 1007 3 4 0.18 4.57
3:09 pm 15:09 Cloudy with Heavy Rain 71 21.7 69 20.6 94 94 E 10 17 29.74 1007 2 3 0.09 2.29
3:21 pm 15:21 Cloudy with Heavy Rain 71 21.7 69 20.6 94 94 ENE 9 15 29.73 1007 2 2 0.17 4.32
3:49 pm 15:49 Cloudy with Heavy Rain 70 21 70 21 100 100 NE 9 15 29.71 1006 1 2 0.39 9.91
3:53 pm 15:53 Cloudy with Heavy Rain 70 21.1 69 20.6 97 97 ENE 10 17 29.71 1006 1 2 0.41 10.41
4:10 pm 16:10 Cloudy with Heavy Rain 70 21.1 69 20.6 97 97 ENE 9 15 29.71 1006 1 2 0.11 2.79
4:32 pm 16:32 Cloudy with Heavy Rain 70 21.1 69 20.6 97 97 NE 9 15 29.70 1006 1 1 0.29 7.37
4:37 pm 16:37 Cloudy with Heavy Rain 70 21.1 69 20.6 97 97 NE 9 15 29.69 1005 1 2 0.33 8.38
4:53 pm 16:53 Cloudy with Rain 70 21.1 69 20.6 97 97 NNE 10 17 29.69 1005 1 2 0.42 10.67
5:02 pm 17:02 Cloudy with Rain 70 21.1 69 20.6 97 97 NE 9 15 29.69 1005 2 3 0.02 0.51
5:09 pm 17:09 Cloudy with Rain 70 21.1 69 20.6 97 97 NE 12 19 29.68 1005 2 3 0.03 0.76
5:21 pm 17:21 Cloudy with Light Rain 70 21.1 69 20.6 97 97 NNE 9 15 29.68 1005 3 5 0.04 1.02
5:31 pm 17:31 Cloudy with Light Rain 70 21.1 69 20.6 97 97 NNE 9 15 29.68 1005 4 6 0.05 1.27
5:53 pm 17:53 Cloudy with Light Rain 70 21.1 69 20.6 97 97 NE 8 13 29.68 1005 3 4 0.07 1.78
6:08 pm 18:08 Cloudy with Light Rain 70 21.1 69 20.6 97 97 NNE 8 13 29.68 1005 8 13 0.01 0.25
6:23 pm 18:23 Cloudy with Rain 70 21.1 69 20.6 97 97 NNE 7 11 29.67 1005 2 3 0.05 1.27
6:30 pm 18:30 Cloudy with Rain 70 21.1 69 20.6 97 97 NNE 7 11 29.67 1005 2 2 0.07 1.78
6:53 pm 18:53 Cloudy with Heavy Rain 70 21.1 69 20.6 97 97 N 6 9 29.66 1005 1 2 0.17 4.32
7:07 pm 19:07 Cloudy with Rain 70 21.1 69 20.6 97 97 NNE 7 11 29.66 1004 2 3 0.07 1.78
7:16 pm 19:16 Cloudy with Rain 70 21.1 69 20.6 97 97 NNE 7 11 29.66 1004 3 4 0.09 2.29
7:40 pm 19:40 Cloudy with Rain 70 21.1 69 20.6 97 97 NNE 7 11 29.65 1004 2 3 0.17 4.32
7:53 pm 19:53 Cloudy with Heavy Rain 70 21.1 69 20.6 97 97 NNE 6 9 29.65 1004 2 3 0.24 6.10
8:01 pm 20:01 Cloudy with Rain 70 21.1 69 20.6 97 97 NNE 8 13 29.65 1004 3 4 0.03 0.76
8:10 pm 20:10 Cloudy with Rain 70 21.1 69 20.6 97 97 NNE 9 15 29.64 1004 3 5 0.05 1.27
8:53 pm 20:53 Cloudy with Light Rain 70 21.1 69 20.6 97 97 NNE 7 11 29.65 1004 4 6 0.11 2.79
9:32 pm 21:32 Cloudy with Rain 70 21.1 69 20.6 97 97 NNE 7 11 29.65 1004 3 4 0.07 1.78
9:53 pm 21:53 Cloudy with Rain 70 21.1 69 20.6 97 97 NNE 9 15 29.65 1004 3 5 0.11 2.79
10:08 pm 22:08 Cloudy with Rain 70 21.1 69 20.6 97 97 NNE 6 9 29.65 1004 3 4 0.05 1.27
10:19 pm 22:19 Cloudy with Rain 70 21.1 69 20.6 97 97 NNE 6 9 29.65 1004 3 4 0.09 2.29
10:44 pm 22:44 Cloudy with Light Rain 70 21.1 69 20.6 97 97 NNE 6 9 29.65 1004 3 5 0.15 3.81
10:53 pm 22:53 Cloudy with Rain 70 21.1 69 20.6 97 97 NNE 7 11 29.64 1004 3 4 0.17 4.32
11:11 pm 23:11 Cloudy with Light Rain 70 21.1 69 20.6 97 97 NNE 7 11 29.64 1004 3 5 0.02 0.51
11:26 pm 23:26 Cloudy with Light Rain 70 21.1 69 20.6 97 97 N 7 11 29.64 1004 3 4 0.04 1.02
11:53 pm 23:53 Cloudy with Rain 70 21.1 69 20.6 97 97 N 9 15 29.64 1004 2 3 0.10 2.54

Powered by AerisWeather